Temp
80 80 79 79 77 78 77 79 73 78 76 74 73 74 76 79 79 78 78 80 80 80 80 81 82 83 85 86 86 86 85 85 85 85 86 87 87 86 86 86 86 87 86 87
73 79 77 75 74 75 74 76 75 75 76 77 78 78 77 78 77 76 76 78 79 80 80 80 80 80 82 84 85 86 83 83 84 83 84 84 84 84 84 84 84 85 85 86
68 75 74 68 75 72 74 73 73 71 71 74 74 74 75 78 77 75 75 77 77 79 80 80 81 81 79 80 84 84 83 82 82 82 81 82 82 82 82 82 84 83 84 85
70 69 58 70 74 73 71 71 74 73 72 73 74 77 79 80 77 76 77 76 77 80 81 81 83 83 79 80 80 82 82 81 82 81 80 81 81 81 81 82 82 83 83 83
65 67 67 66 69 69 68 69 74 72 73 75 76 77 78 79 80 79 78 79 80 81 80 80 81 82 80 79 79 79 81 81 81 81 81 80 80 80 82 82 82 82 84 83
68 61 58 66 71 74 73 64 73 72 72 72 74 67 75 78 79 78 80 80 79 79 80 80 81 82 79 79 79 77 78 82 82 82 81 81 81 80 82 82 82 87 84 85
68 63 65 70 72 74 59 62 72 73 73 72 69 71 74 77 77 78 79 79 79 78 77 78 80 81 78 78 78 80 76 69 73 80 79 82 82 82 82 82 84 82 82 82
65 59 57 71 72 63 69 74 75 73 73 71 72 73 75 75 75 77 77 77 78 76 77 78 79 78 77 77 80 79 78 75 72 77 78 84 81 82 82 82 80 80 80 80
65 65 69 72 70 75 76 72 72 72 74 73 72 73 75 74 75 76 76 77 77 76 75 77 77 77 76 77 79 78 78 78 77 76 75 76 79 79 80 81 83 84 85 85
64 69 70 72 74 75 75 73 74 75 75 74 73 74 74 75 76 75 77 76 77 75 74 74 76 76 77 78 79 78 76 76 78 78 78 81 80 82 84 84 85 86 88 87
65 70 70 72 73 74 73 74 74 75 75 73 73 72 73 73 73 74 74 75 74 71 73 73 75 75 77 78 79 77 77 78 76 78 79 81 81 82 84 86 81 84 88 90
63 68 66 67 72 73 71 71 73 72 71 73 72 68 69 70 71 71 70 71 71 69 71 73 74 75 75 77 77 78 78 80 82 82 80 84 84 79 50 51 50 50 53 64
66 70 70 71 73 75 72 71 73 72 71 66 68 70 67 67 66 65 67 69 69 68 69 72 73 73 75 75 76 75 76 78 81 77 83 84 84 83 78 61 48 46 48 51
71 70 67 71 69 73 73 73 72 71 70 68 67 68 67 67 69 66 63 65 67 66 67 69 69 72 76 76 74 74 76 64 79 81 84 85 84 84 81 79 70 69 51 54
69 71 71 74 74 72 73 72 65 66 67 68 66 64 64 64 64 66 67 68 68 66 66 69 69 71 75 76 74 75 77 79 81 83 82 80 83 80 76 75 73 73 62 52
69 71 72 70 69 70 71 70 69 64 67 69 64 61 65 63 62 67 65 66 64 63 69 71 72 72 74 76 76 77 79 70 69 81 82 79 75 71 69 67 66 69 66 69
66 65 67 67 68 69 70 70 68 62 62 60 59 60 61 61 61 60 63 65 64 66 69 70 73 74 76 77 77 77 78 82 72 77 73 75 73 71 68 68 67 67 68 73
70 69 71 70 69 69 69 70 69 66 60 59 59 60 60 58 58 59 62 65 66 68 70 71 73 75 77 78 78 74 78 80 76 78 79 77 74 68 66 66 67 67 68 65
70 68 70 71 71 70 70 70 70 70 68 64 58 58 58 59 59 60 61 61 61 62 66 70 65 67 74 77 72 79 76 76 73 73 78 68 74 68 64 63 63 65 65 65
70 69 70 70 71 70 69 71 71 70 70 68 62 58 57 59 59 61 61 59 60 61 63 63 64 67 76 76 65 73 73 75 75 71 73 71 72 69 68 62 64 64 66 69
69 68 67 66 66 71 71 71 70 68 69 68 64 60 57 59 59 59 57 57 59 60 61 61 64 66 67 67 71 69 69 72 73 71 71 72 71 67 64 66 65 66 66 69
69 68 67 62 65 71 71 72 71 69 69 68 67 67 66 61 58 58 59 57 59 56 60 62 61 61 65 64 69 70 70 68 69 71 71 72 65 63 63 66 66 66 66 66
67 66 66 64 60 68 72 72 72 70 68 68 68 67 68 62 58 56 55 57 57 56 59 59 57 58 60 65 66 66 70 71 68 68 71 69 69 67 65 65 64 65 66 66
64 63 65 64 65 60 66 69 73 71 71 71 70 71 70 68 61 68 67 58 54 55 57 56 56 56 57 58 57 57 57 58 59 61 66 56 68 70 68 65 64 66 66 64
63 61 57 58 57 57 66 70 73 72 71 71 71 73 73 71 69 69 66 61 56 56 55 55 55 55 57 57 56 56 55 54 54 55 55 55 56 57 58 63 61 62 65 67
61 58 58 62 65 66 71 73 71 71 72 71 72 74 75 74 71 67 70 66 61 59 57 58 56 55 55 54 56 59 57 58 59 55 53 53 53 53 53 54 56 56 58 62
60 56 68 68 67 71 72 70 71 71 70 71 72 74 74 74 74 72 62 69 71 67 59 57 57 57 59 55 55 56 56 58 54 60 56 55 53 53 53 53 51 51 54 55
MSLP
1002.85 1002.93 1003.22 1003.09 1003.32 1003.38 1003.37 1003.19 1003.34 1003.27 1004.67 1006.70 1008.18 1008.86 1009.18 1009.35 1009.68 1009.73 1009.67 1009.51 1009.34 1009.09 1008.94 1008.67 1008.38 1008.08 1008.01 1008.18 1008.32 1008.59 1008.79 1008.99 1009.12 1009.52 1010.03 1010.42 1010.76 1011.21 1011.71 1012.10 1012.54 1012.97 1013.21 1013.35
1003.59 1003.37 1004.08 1003.91 1004.55 1004.68 1004.85 1004.77 1005.15 1005.51 1005.84 1007.85 1008.71 1009.13 1009.33 1009.54 1009.94 1010.13 1010.19 1010.10 1009.93 1009.59 1009.30 1009.15 1009.00 1008.68 1008.34 1008.09 1008.22 1008.35 1008.64 1008.71 1008.91 1009.15 1009.40 1009.87 1010.28 1010.72 1011.21 1011.54 1011.86 1012.21 1012.55 1012.80
1003.67 1003.96 1004.73 1004.78 1004.76 1005.81 1005.83 1006.64 1006.55 1006.47 1007.97 1008.86 1009.12 1009.48 1009.66 1009.62 1009.94 1010.53 1010.65 1010.58 1010.30 1009.94 1009.68 1009.46 1009.18 1009.02 1008.73 1008.49 1008.04 1007.89 1008.05 1008.37 1008.64 1008.89 1009.11 1009.26 1009.75 1010.15 1010.44 1010.89 1011.19 1011.55 1011.85 1012.12
1004.37 1005.41 1005.30 1006.22 1007.31 1007.55 1007.49 1007.78 1008.12 1008.42 1008.96 1009.49 1009.83 1009.90 1009.75 1009.66 1010.21 1010.47 1010.69 1010.72 1010.52 1010.09 1009.75 1009.58 1009.23 1008.86 1008.89 1008.57 1008.10 1007.79 1007.65 1007.89 1008.08 1008.40 1008.62 1008.85 1009.06 1009.30 1009.59 1009.92 1010.31 1010.70 1011.01 1011.35
1005.28 1005.07 1006.17 1007.51 1008.25 1008.51 1008.48 1008.04 1008.95 1009.21 1009.60 1010.01 1010.29 1010.02 1009.13 1010.03 1010.33 1010.46 1010.52 1010.38 1010.23 1010.14 1009.85 1009.63 1009.27 1008.84 1008.57 1008.33 1008.09 1007.62 1007.28 1007.33 1007.61 1007.90 1008.06 1008.24 1008.40 1008.56 1008.84 1009.16 1009.38 1009.68 1010.09 1010.47
1005.95 1005.95 1006.08 1007.89 1009.26 1009.79 1009.66 1008.76 1009.73 1010.26 1010.47 1010.64 1010.75 1010.06 1009.31 1009.91 1010.47 1010.45 1010.32 1010.10 1009.94 1009.80 1009.68 1009.33 1008.94 1008.74 1008.35 1008.01 1007.62 1007.58 1007.17 1006.60 1006.69 1006.91 1007.26 1007.46 1007.70 1007.89 1008.10 1008.44 1008.58 1008.67 1009.05 1009.43
1006.28 1006.92 1007.74 1009.32 1010.00 1010.23 1009.81 1010.39 1010.72 1010.95 1011.10 1011.24 1011.18 1011.24 1011.07 1010.90 1010.40 1010.22 1009.93 1009.61 1009.49 1009.45 1009.11 1008.89 1008.74 1008.46 1008.05 1007.75 1007.41 1006.96 1006.97 1007.13 1006.64 1006.47 1006.22 1006.52 1006.91 1007.12 1007.34 1007.68 1007.87 1008.21 1008.32 1008.54
1007.95 1008.19 1008.79 1010.37 1010.33 1010.47 1010.73 1010.91 1011.01 1011.34 1011.54 1011.59 1011.54 1011.26 1010.91 1010.58 1010.21 1009.81 1009.17 1009.01 1009.09 1008.87 1008.60 1008.44 1008.23 1008.01 1007.64 1007.37 1007.19 1007.00 1006.66 1006.38 1005.85 1005.35 1005.61 1005.50 1006.21 1006.48 1006.58 1006.95 1007.36 1007.56 1007.83 1008.03
1009.18 1009.00 1010.50 1011.11 1011.26 1011.38 1011.45 1011.55 1011.59 1011.70 1011.67 1011.58 1011.26 1010.82 1010.46 1009.99 1009.62 1009.28 1009.00 1008.60 1008.53 1008.32 1007.95 1007.81 1007.69 1007.45 1006.94 1006.82 1006.83 1006.77 1006.31 1006.15 1005.97 1004.93 1003.73 1006.01 1005.69 1005.94 1006.03 1006.21 1006.31 1006.33 1006.42 1006.52
1010.40 1010.41 1010.67 1011.13 1011.32 1011.55 1011.79 1011.76 1011.80 1011.72 1011.43 1011.19 1010.74 1010.38 1009.91 1009.46 1008.96 1008.65 1008.37 1008.02 1007.80 1007.63 1007.28 1006.94 1006.90 1006.77 1006.52 1006.31 1006.24 1006.22 1006.13 1005.76 1005.25 1005.49 1005.79 1005.81 1005.01 1005.17 1005.16 1004.96 1005.08 1005.26 1005.04 1005.19
1010.62 1010.65 1011.30 1011.21 1011.63 1011.87 1012.00 1011.96 1011.72 1011.43 1011.13 1010.83 1010.51 1010.08 1009.67 1009.10 1008.59 1008.21 1007.84 1007.54 1007.34 1007.18 1006.68 1006.24 1006.13 1006.05 1005.98 1005.71 1005.51 1005.46 1005.28 1005.05 1004.95 1004.75 1004.64 1004.60 1004.72 1004.89 1004.73 1004.14 1004.54 1005.14 1004.60 1004.58
1010.92 1011.97 1012.28 1012.09 1012.16 1012.23 1012.00 1011.74 1011.46 1011.14 1010.84 1010.47 1010.29 1009.90 1009.56 1009.02 1008.50 1008.02 1007.59 1007.20 1006.84 1006.58 1006.19 1005.49 1005.37 1005.21 1005.19 1005.11 1004.92 1004.60 1004.41 1004.13 1003.80 1003.65 1003.46 1003.60 1003.19 1004.50 1005.71 1005.64 1005.07 1005.34 1005.33 1005.34
1012.41 1012.67 1012.61 1012.39 1012.07 1011.71 1011.65 1011.52 1011.20 1010.99 1010.72 1010.55 1010.25 1009.83 1009.35 1008.58 1008.11 1007.75 1007.29 1006.69 1006.10 1005.66 1005.47 1004.83 1004.57 1004.36 1004.21 1004.21 1004.17 1003.97 1003.70 1003.52 1003.29 1003.12 1002.70 1002.40 1002.74 1003.42 1004.23 1005.54 1005.64 1005.48 1005.46 1005.32
1012.91 1012.89 1012.41 1012.06 1011.87 1011.86 1011.51 1011.21 1011.09 1011.19 1010.84 1010.48 1010.04 1009.53 1008.91 1008.13 1007.49 1006.78 1006.38 1005.97 1005.34 1005.08 1004.68 1004.19 1003.94 1003.60 1003.26 1003.28 1003.39 1003.31 1003.15 1003.03 1002.77 1002.40 1001.90 1001.81 1002.02 1002.22 1003.16 1003.61 1004.57 1005.19 1005.60 1005.39
1013.02 1012.94 1012.50 1012.02 1011.74 1011.67 1011.58 1011.09 1011.17 1010.73 1010.21 1009.81 1009.81 1009.39 1008.88 1007.86 1007.08 1006.13 1005.44 1004.89 1004.44 1004.16 1003.82 1003.28 1002.97 1002.68 1002.49 1002.38 1002.46 1002.38 1002.32 1001.95 1001.60 1001.41 1001.46 1001.24 1001.39 1001.99 1002.82 1003.04 1003.61 1003.98 1005.10 1005.64
1012.98 1012.60 1012.27 1012.06 1011.95 1011.64 1011.27 1010.84 1010.53 1010.56 1010.11 1009.48 1009.50 1009.19 1008.32 1007.51 1006.72 1005.74 1004.87 1004.28 1003.88 1003.33 1002.97 1002.23 1001.82 1001.77 1001.50 1001.39 1001.36 1001.33 1001.12 1001.10 1001.14 1000.56 1000.49 1001.01 1001.52 1002.08 1002.39 1002.86 1003.29 1003.41 1003.90 1004.41
1012.75 1012.35 1012.28 1012.04 1011.80 1011.51 1011.14 1010.88 1010.77 1010.74 1010.48 1010.14 1009.64 1008.98 1008.26 1007.36 1006.41 1005.08 1004.43 1003.76 1003.30 1002.72 1002.34 1001.85 1001.15 1000.96 1000.75 1000.54 1000.43 1000.23 1000.07 999.58 1000.26 1000.57 1000.65 1000.90 1001.33 1001.39 1001.81 1002.14 1002.58 1002.75 1002.94 1003.09
1012.71 1012.57 1012.29 1012.15 1011.89 1011.56 1011.27 1010.98 1010.65 1010.44 1010.52 1010.14 1009.53 1008.87 1008.13 1007.39 1006.50 1005.60 1004.58 1003.61 1002.90 1002.23 1001.74 1001.28 1000.88 1000.54 1000.21 999.87 999.67 999.75 999.64 999.22 999.51 999.79 999.57 999.88 1000.71 1001.31 1001.53 1001.67 1001.83 1001.98 1002.43 1002.83
1012.54 1012.60 1012.29 1012.11 1011.98 1011.75 1011.41 1011.03 1010.68 1010.30 1010.02 1009.81 1009.48 1008.85 1008.26 1007.49 1006.63 1005.69 1004.84 1003.82 1003.04 1002.45 1001.89 1001.48 1001.04 1000.72 1000.09 999.40 999.15 999.04 999.50 999.24 999.26 999.35 999.31 999.81 1000.26 1000.89 1001.30 1001.46 1001.51 1001.79 1002.26 1002.41
1012.40 1012.49 1012.33 1012.10 1011.98 1011.79 1011.43 1011.08 1010.68 1010.26 1009.92 1009.51 1009.35 1008.90 1008.22 1007.49 1006.68 1005.84 1005.04 1004.32 1003.74 1002.89 1002.26 1001.43 1000.78 1000.21 999.39 998.95 999.13 999.22 999.25 998.98 998.96 999.21 999.47 999.79 1000.03 1000.68 1000.96 1001.39 1001.95 1001.42 1002.39 1002.54
1012.27 1012.45 1012.43 1012.40 1012.05 1011.57 1011.30 1010.92 1010.57 1010.27 1009.91 1009.45 1009.15 1008.89 1008.50 1007.63 1006.97 1006.21 1005.32 1004.51 1003.38 1002.92 1002.21 1001.41 1000.79 1000.20 999.88 999.66 999.62 999.68 999.57 999.14 998.93 999.10 999.37 999.64 1000.14 1000.73 1001.18 1001.50 1001.67 1001.64 1001.69 1000.90
1012.22 1012.16 1012.25 1012.43 1012.04 1011.30 1011.18 1010.75 1010.44 1010.24 1009.84 1009.40 1008.96 1008.52 1007.88 1007.65 1007.23 1006.42 1005.75 1005.27 1003.79 1002.94 1002.42 1001.65 1001.11 1000.66 1000.27 1000.08 1000.00 999.76 999.57 999.59 999.51 999.34 999.53 999.87 1000.30 1000.55 1000.82 1000.96 1001.39 1001.21 1001.18 1001.39
1012.26 1012.30 1012.24 1012.25 1012.19 1011.64 1011.03 1010.65 1010.23 1010.13 1009.81 1009.30 1008.90 1008.46 1007.74 1007.86 1007.71 1006.98 1006.24 1006.03 1005.11 1003.81 1003.33 1002.70 1001.97 1001.17 1000.68 1000.46 1000.35 1000.20 999.90 999.79 999.87 999.81 999.74 1000.06 1000.39 1000.58 1000.79 1001.06 1001.30 1001.40 1001.59 1001.50
1012.49 1012.44 1012.23 1012.26 1012.01 1011.76 1011.15 1010.67 1010.17 1010.14 1009.79 1009.28 1009.03 1008.53 1008.02 1007.84 1007.87 1007.46 1006.92 1006.93 1006.12 1005.44 1004.83 1004.12 1003.49 1002.90 1002.39 1002.06 1001.87 1001.79 1001.59 1001.37 1001.20 1000.77 1000.36 1000.61 1000.65 1000.70 1000.88 1001.14 1001.28 1001.44 1001.16 1000.82
1012.52 1012.53 1012.51 1012.17 1011.82 1011.51 1011.09 1010.62 1009.86 1009.85 1009.63 1009.21 1008.94 1008.47 1008.15 1008.17 1007.95 1007.85 1007.69 1007.67 1007.25 1006.67 1006.22 1005.88 1005.06 1004.41 1003.72 1003.74 1003.48 1003.27 1003.07 1003.01 1002.99 1002.67 1002.48 1002.38 1002.19 1002.04 1001.60 1001.48 1001.82 1001.70 1000.97 1000.73
1012.55 1012.40 1012.02 1011.45 1011.19 1011.04 1010.73 1010.10 1009.98 1010.08 1009.65 1009.33 1009.12 1008.73 1008.34 1007.94 1008.05 1008.08 1007.69 1007.72 1008.02 1007.62 1007.37 1007.14 1006.83 1006.42 1005.98 1005.39 1004.97 1004.72 1004.57 1004.36 1004.17 1004.10 1003.83 1003.71 1003.65 1003.41 1003.34 1003.18 1003.09 1002.93 1002.64 1002.28
1012.42 1011.92 1011.18 1010.98 1010.95 1010.72 1010.64 1010.57 1010.21 1010.11 1010.14 1009.89 1009.34 1009.08 1008.85 1008.54 1008.07 1007.74 1008.03 1007.89 1007.50 1007.97 1008.25 1008.01 1007.67 1007.44 1007.17 1007.00 1006.60 1006.24 1006.18 1006.03 1005.79 1005.18 1005.15 1005.05 1004.97 1004.66 1004.70 1004.71 1004.65 1004.02 1004.33 1004.39
Wind_Speed
11 7 10 10 8 7 10 13 10 10 8 10 6 5 6 6 9 12 13 15 14 13 11 11 9 7 7 9 10 12 14 15 16 15 15 15 14 15 15 15 14 14 13 12
14 8 9 10 4 6 5 6 10 8 8 7 5 5 7 8 7 11 13 14 14 14 13 11 11 11 8 8 10 11 13 16 15 13 14 14 14 14 14 15 14 14 14 14
13 3 8 14 10 4 3 3 7 9 9 6 6 8 10 10 4 9 12 13 14 14 13 11 11 10 9 10 10 11 13 14 15 14 15 15 15 14 15 15 14 15 15 15
5 4 11 9 5 3 4 2 1 1 3 5 8 10 11 4 4 10 13 13 13 13 12 12 12 11 10 9 11 11 12 12 14 15 15 15 15 16 15 14 14 14 14 15
6 9 7 8 3 1 4 2 1 4 3 7 10 14 1 3 7 15 17 15 12 13 13 13 12 11 10 10 8 10 11 11 11 13 15 15 16 15 14 13 13 14 14 14
4 8 6 10 6 3 3 8 8 4 7 10 12 11 10 19 18 19 17 15 15 15 15 14 12 12 11 10 8 8 11 10 10 11 14 15 15 15 13 13 13 11 13 14
5 6 8 6 4 2 8 8 8 9 10 12 12 11 17 18 20 19 18 18 16 16 15 15 13 12 12 11 9 8 6 8 6 10 9 13 14 13 12 13 12 13 12 12
1 4 5 4 4 6 10 11 10 10 10 13 14 16 18 19 19 20 22 20 18 15 15 14 14 13 12 12 8 8 9 7 4 15 6 10 13 13 14 13 13 13 12 10
5 6 5 2 6 8 9 10 11 12 14 15 17 19 19 19 19 18 20 19 17 15 16 14 13 14 13 11 10 8 9 12 9 6 9 14 10 11 11 12 12 13 12 12
4 6 4 8 6 4 9 11 13 15 17 17 19 20 21 20 19 17 18 19 17 17 17 16 14 14 14 13 10 10 10 11 9 8 11 12 9 11 11 11 11 13 12 12
7 2 10 5 6 13 14 15 15 16 17 19 20 20 21 20 20 18 18 18 17 16 17 17 15 14 14 14 12 11 11 11 10 9 10 10 10 6 9 11 9 11 12 11
5 9 7 12 14 14 15 15 16 18 19 20 20 17 19 20 19 18 18 18 17 15 19 18 16 15 14 14 14 13 12 10 10 9 8 10 6 7 2 5 6 8 9 9
6 10 11 14 12 11 16 18 17 18 18 16 19 19 18 18 16 16 19 20 19 16 18 19 16 16 15 14 14 15 13 12 9 10 10 8 9 10 10 5 3 4 5 9
7 7 10 11 14 14 14 16 16 18 17 16 16 18 19 17 19 15 15 16 16 14 16 14 13 17 16 14 13 15 14 12 11 11 11 11 11 10 9 9 8 8 4 1
6 8 10 10 11 14 13 13 16 16 15 14 15 15 16 20 19 18 16 17 17 14 15 15 13 16 15 14 14 14 12 12 12 11 12 11 9 9 10 10 9 9 4 3
8 7 8 11 12 13 15 16 17 17 19 17 17 15 20 16 15 17 16 13 12 11 14 14 13 12 14 13 14 13 14 17 11 10 10 9 8 8 8 7 8 9 8 11
8 7 10 10 11 13 15 15 14 13 15 15 15 16 16 15 13 14 12 11 9 11 12 14 14 11 11 11 13 10 10 10 11 11 9 8 8 9 7 8 9 7 9 11
6 7 7 8 9 10 12 15 16 16 14 15 15 14 15 14 13 14 13 12 9 10 11 10 10 9 10 11 13 10 8 9 7 10 10 6 7 7 6 8 9 8 7 9
7 7 5 6 7 8 10 12 14 15 15 13 14 14 12 12 13 13 12 11 9 10 11 14 13 13 14 13 8 7 8 10 7 8 9 4 6 5 5 3 3 2 5 8
8 7 4 4 5 7 10 11 13 14 15 15 14 14 14 13 14 14 11 10 10 9 13 11 13 9 12 6 3 4 7 7 8 7 7 6 7 6 6 9 6 7 6 8
8 6 5 5 6 6 9 11 12 13 14 14 13 13 13 13 14 13 12 10 14 11 13 11 8 4 3 3 3 4 5 6 7 5 6 6 7 4 6 6 5 6 5 4
8 8 6 6 8 5 7 10 11 12 13 14 15 15 16 13 12 13 11 13 11 19 8 6 5 7 5 4 1 1 3 3 5 5 5 7 5 3 2 1 2 4 2 5
8 8 6 8 4 7 7 8 10 12 13 13 14 15 14 12 10 11 11 16 11 15 11 10 20 19 15 5 5 6 5 1 3 3 4 5 5 5 5 4 3 4 5 8
6 7 6 7 6 6 7 8 8 10 11 11 13 12 12 10 8 12 12 16 21 17 14 16 17 22 19 10 11 10 10 10 10 9 5 1 2 4 4 3 5 8 9 9
6 5 5 7 5 5 4 6 5 8 9 10 12 10 12 11 11 11 11 11 19 16 13 20 25 23 12 11 11 10 10 10 9 9 10 9 9 7 9 7 6 5 3 3
5 3 5 8 2 1 2 3 5 6 7 8 9 10 9 8 8 8 10 11 11 12 10 11 11 11 12 12 13 14 12 11 13 11 10 10 10 9 10 10 9 9 9 8
5 6 3 2 2 3 3 4 5 6 7 8 8 9 9 10 10 10 9 11 12 11 8 7 8 10 11 9 10 10 10 11 14 12 10 9 8 8 8 7 7 8 9 10
Wind_Direction
275 297 280 299 281 258 255 273 283 315 317 75 38 22 16 25 20 18 15 14 14 11 8 5 359 322 270 246 226 219 218 216 214 211 213 211 214 211 211 211 212 220 225 228
266 241 256 250 245 259 268 269 263 278 278 63 38 22 13 16 16 17 13 6 3 1 2 5 354 350 328 279 249 227 225 224 219 212 209 208 209 210 212 211 213 215 221 229
262 209 254 247 244 263 298 281 312 273 47 18 5 356 353 341 36 17 2 354 352 350 352 351 345 339 331 325 278 244 228 228 223 214 214 208 207 208 208 214 213 215 222 226
274 186 233 71 75 36 308 253 269 242 19 1 350 338 311 340 27 355 345 338 329 330 336 337 333 334 321 312 308 257 243 234 226 218 215 212 210 211 210 209 214 217 221 225
251 230 111 166 154 309 315 197 174 308 320 347 341 323 5 109 317 329 322 315 311 311 314 315 317 317 317 312 308 298 248 244 238 226 221 215 214 213 212 211 210 215 221 225
173 274 266 71 87 8 287 255 82 2 335 330 329 301 306 349 323 315 311 311 309 303 297 295 303 307 299 302 305 292 302 244 230 233 228 224 218 216 213 214 220 218 221 225
218 267 110 76 43 298 245 56 346 335 324 320 311 311 308 306 303 303 303 303 304 298 293 283 284 296 293 289 289 289 266 287 316 250 226 232 229 218 213 217 226 218 223 221
252 263 233 61 240 275 6 324 330 321 316 307 303 301 301 301 299 301 301 303 301 296 292 289 278 276 279 283 297 296 269 280 279 273 232 234 224 224 215 212 218 222 223 229
302 48 82 4 313 319 315 304 307 308 309 304 299 297 300 298 296 296 294 293 293 287 285 282 276 267 266 272 280 293 284 261 250 273 349 251 237 215 219 214 228 215 220 227
281 114 337 319 292 302 336 319 310 303 302 301 297 298 298 296 297 298 294 292 293 290 282 277 274 266 262 262 261 268 269 271 263 233 235 245 234 223 220 223 216 224 226 223
270 262 328 96 8 334 318 311 304 302 303 302 301 302 302 299 294 291 291 289 291 293 282 278 276 271 270 262 253 248 257 265 254 242 227 234 232 260 242 235 217 228 232 227
0 0 325 311 321 316 309 309 307 306 304 303 305 299 298 296 297 297 292 289 279 276 278 271 268 267 265 261 257 245 245 250 252 252 223 239 234 194 72 300 347 315 279 263
325 324 315 304 298 313 323 319 311 312 308 312 310 302 293 283 288 283 278 275 276 273 274 274 269 266 262 262 256 247 243 252 257 255 255 245 236 240 235 186 62 41 327 274
315 319 310 333 327 321 314 324 329 321 305 302 298 307 311 304 303 295 280 277 281 280 274 262 259 264 261 260 250 244 249 251 257 262 254 241 244 239 245 245 233 224 75 21
340 324 309 313 325 341 329 337 327 320 319 322 319 312 307 308 301 299 292 281 279 273 274 269 258 256 257 257 252 244 242 246 246 242 243 253 253 243 230 239 244 238 160 111
320 305 335 338 346 334 343 335 340 337 328 326 328 314 311 313 303 302 301 290 283 276 276 274 271 265 260 246 245 242 240 236 261 255 246 242 231 233 230 221 219 227 196 200
301 324 340 341 340 347 349 353 351 335 332 328 325 320 320 325 315 301 314 308 288 276 275 276 268 272 263 247 238 247 244 239 195 231 230 211 218 227 220 215 217 213 199 199
295 305 316 335 340 347 353 356 357 359 345 331 322 322 327 328 327 329 326 331 324 324 305 325 301 270 264 248 241 235 230 230 218 225 228 192 210 225 220 219 211 191 196 163
325 316 318 334 352 351 349 350 354 3 354 356 338 333 330 325 329 325 327 323 347 334 322 322 305 286 262 257 242 223 221 227 231 235 227 224 185 192 181 158 115 237 242 148
326 325 309 341 350 357 354 351 345 350 352 355 356 345 340 339 337 339 340 336 323 324 320 309 306 280 274 289 156 276 219 233 224 224 202 214 188 176 179 166 189 152 202 171
313 298 334 323 317 348 4 356 352 354 346 347 359 353 343 342 342 341 343 340 333 332 318 317 325 339 309 317 211 211 246 243 237 219 186 181 158 179 167 179 193 189 210 194
315 304 308 312 280 340 0 1 358 355 350 354 357 354 357 4 346 348 356 357 334 344 342 348 344 2 24 341 348 219 216 225 265 221 181 170 158 139 278 273 249 225 242 270
309 295 303 330 320 320 326 6 359 8 1 3 5 359 4 20 7 0 2 355 357 357 8 17 23 24 16 22 25 9 10 4 189 232 185 184 194 178 169 184 274 280 234 226
316 297 308 321 334 315 305 1 3 17 4 10 18 12 27 26 33 17 22 12 11 20 29 23 24 34 39 33 36 34 29 26 23 17 12 352 235 190 185 186 207 236 233 218
315 329 296 291 310 277 319 334 360 24 15 24 23 27 23 44 41 43 39 27 31 37 34 29 32 34 34 39 39 40 42 39 30 36 38 34 23 28 22 35 28 9 320 332
336 295 272 289 270 350 45 346 38 32 11 22 27 26 25 21 38 28 46 53 40 31 38 32 28 35 41 39 36 37 39 37 42 38 40 42 40 40 35 29 25 26 25 24
297 282 338 35 110 86 68 52 34 30 31 350 17 21 28 19 20 33 50 32 58 62 37 29 31 33 39 31 36 47 36 35 29 42 47 40 36 42 40 41 44 43 46 50